This is the latest recevied weather packets stored in our database for station/object DM4SB-13. If no packets are shown the sender has not sent any weather packets the latest 1 day(s).
| Time | Temp. | Humidity | Pressure | Rain* | Wind** | Luminosity | Snow |
|---|---|---|---|---|---|---|---|
| 1778069418 | 16.67° C | 64% | 1005.7 hPa | - | - | - | - |
| 1778068218 | 16.67° C | 66% | 1005.8 hPa | - | - | - | - |
| 1778067618 | 16.11° C | 66% | 1005.8 hPa | - | - | - | - |
| 1778067018 | 16.11° C | 66% | 1006 hPa | - | - | - | - |
| 1778066418 | 16.11° C | 65% | 1006.2 hPa | - | - | - | - |
| 1778064018 | 16.11° C | 68% | 1006.5 hPa | - | - | - | - |
| 1778063418 | 16.11° C | 67% | 1006.5 hPa | - | - | - | - |
| 1778062818 | 15.56° C | 67% | 1006.6 hPa | - | - | - | - |
| 1778060418 | 15.56° C | 70% | 1007.2 hPa | - | - | - | - |
| 1778058618 | 14.44° C | 71% | 1007.1 hPa | - | - | - | - |
| 1778057418 | 14.44° C | 73% | 1007.3 hPa | - | - | - | - |
| 1778055018 | 13.89° C | 74% | 1007.7 hPa | - | - | - | - |
| 1778054418 | 13.89° C | 74% | 1007.8 hPa | - | - | - | - |
| 1778053818 | 13.89° C | 74% | 1007.9 hPa | - | - | - | - |
| 1778053218 | 13.33° C | 74% | 1008 hPa | - | - | - | - |
| 1778052618 | 13.33° C | 74% | 1008 hPa | - | - | - | - |
| 1778051418 | 13.33° C | 74% | 1008.1 hPa | - | - | - | - |
| 1778050818 | 12.78° C | 74% | 1008.1 hPa | - | - | - | - |
| 1778050218 | 12.78° C | 74% | 1008.2 hPa | - | - | - | - |
| 1778049017 | 12.78° C | 74% | 1008.3 hPa | - | - | - | - |
| 1778047818 | 12.22° C | 73% | 1008.2 hPa | - | - | - | - |
| 1778047218 | 12.22° C | 73% | 1008.3 hPa | - | - | - | - |
| 1778046618 | 12.22° C | 73% | 1008.4 hPa | - | - | - | - |
| 1778046018 | 12.22° C | 73% | 1008.4 hPa | - | - | - | - |
| 1778045418 | 12.22° C | 73% | 1008.3 hPa | - | - | - | - |
* Rain since midnight (hover to see other rain measurements)
** Current wind speed in m/s (hover to see current wind gust speed)